Simultaneous Nadir Overpasses (SNOs) Predictions

Prediction of SNOs between GOES-15 and METOP-B Satellite Orbit:

Table of predicted SNOs for the next 14.0 days since TLE Epoch: 10/26/2024
Index Date Time (GOES-15) GOES-15 Lat,Lon METOP-B Lat,Lon Distance(km) Time Diff (sec)
1 10/27/2024 17:08:02 0.27, 61.44 0.35, 61.91 53.91 80
2 10/29/2024 05:26:48 -0.27, 61.32 0.64, 57.35 452.06 80
3 10/30/2024 05:08:46 -0.27, 61.32 -0.52, 62.35 117.15 80
4 10/31/2024 17:27:39 0.27, 61.47 -0.57, 57.77 421.96 80
5 11/01/2024 17:04:16 0.27, 61.49 0.53, 62.78 146.19 80
6 11/03/2024 05:23:02 -0.26, 61.39 0.43, 58.22 361.21 80
7 11/04/2024 05:04:58 -0.26, 61.40 -0.68, 63.22 207.29 80
8 11/05/2024 17:23:52 0.25, 61.56 -0.39, 58.64 332.20 80
9 11/06/2024 17:00:28 0.25, 61.59 0.74, 63.65 235.14 80
10 11/08/2024 05:19:13 -0.24, 61.50 0.27, 59.09 274.05 80
